{"data":{"norad_id":63962,"epoch":"2026-09-19T03:33:21.970080Z","epoch_age_seconds":263889,"freshness":"STALE","line1":"1 63962U 25099L   26262.14817095  .00014164  00000+0  52306-3 0  9998","line2":"2 63962  42.9997 163.6325 0001161 291.1982  68.8746 15.27591178 76924","mean_motion":15.27591178,"eccentricity":0.0001161,"inclination_deg":42.9997,"raan_deg":163.6325,"arg_perigee_deg":291.1982,"mean_anomaly_deg":68.8746,"bstar":0.00052306,"rev_number":7692,"period_min":94.266058925878,"perigee_km":482.21904547069,"apogee_km":483.81220511029,"semimajor_km":6861.1526252905,"source":"CELESTRAK","updated_at":"2026-09-21T09:00:35.175723Z"}}